QPF
0.00 0.00 0.00 0.00 0.00 0.00 0.00 0.00 0.00 0.00 0.00 0.00 0.00 0.00 0.00 0.00 0.00 0.00 0.00 0.00 0.00 0.00 0.00 0.00 0.00 0.00 0.00 0.00 0.00 0.00 0.00 0.00 0.00 0.00 0.00 0.00 0.00 0.00 0.00 0.00 0.00 0.00 0.00 0.00 0.00
0.00 0.00 0.00 0.00 0.00 0.00 0.00 0.00 0.00 0.00 0.00 0.00 0.00 0.00 0.00 0.00 0.00 0.00 0.00 0.00 0.00 0.00 0.00 0.00 0.00 0.00 0.00 0.00 0.00 0.00 0.00 0.00 0.00 0.00 0.00 0.00 0.00 0.00 0.00 0.00 0.00 0.00 0.00 0.00 0.00
0.00 0.00 0.00 0.00 0.00 0.00 0.00 0.00 0.00 0.00 0.00 0.00 0.00 0.00 0.00 0.00 0.00 0.00 0.00 0.00 0.00 0.00 0.00 0.00 0.00 0.00 0.00 0.00 0.00 0.00 0.00 0.00 0.00 0.00 0.00 0.00 0.00 0.00 0.00 0.00 0.00 0.00 0.00 0.00 0.00
0.00 0.00 0.00 0.00 0.00 0.00 0.00 0.00 0.00 0.00 0.00 0.00 0.00 0.00 0.00 0.00 0.00 0.00 0.00 0.00 0.00 0.00 0.00 0.00 0.00 0.00 0.00 0.00 0.00 0.00 0.00 0.00 0.00 0.00 0.00 0.00 0.00 0.00 0.00 0.00 0.00 0.00 0.00 0.00 0.00
0.00 0.00 0.00 0.00 0.00 0.00 0.00 0.00 0.00 0.00 0.00 0.00 0.00 0.00 0.00 0.00 0.00 0.00 0.00 0.00 0.00 0.00 0.00 0.00 0.00 0.00 0.00 0.00 0.00 0.00 0.00 0.00 0.00 0.00 0.00 0.00 0.00 0.00 0.00 0.00 0.00 0.00 0.00 0.00 0.00
0.00 0.00 0.00 0.00 0.00 0.00 0.00 0.00 0.00 0.00 0.00 0.00 0.00 0.00 0.00 0.00 0.00 0.00 0.00 0.00 0.00 0.00 0.00 0.00 0.00 0.00 0.00 0.00 0.00 0.00 0.00 0.00 0.00 0.00 0.00 0.00 0.00 0.00 0.00 0.00 0.00 0.00 0.00 0.00 0.00
0.00 0.00 0.00 0.00 0.00 0.00 0.00 0.00 0.00 0.00 0.00 0.00 0.00 0.00 0.00 0.00 0.00 0.00 0.00 0.00 0.00 0.00 0.00 0.00 0.00 0.00 0.00 0.00 0.00 0.00 0.00 0.00 0.00 0.00 0.00 0.00 0.00 0.00 0.00 0.00 0.00 0.00 0.00 0.00 0.00
0.00 0.00 0.00 0.00 0.00 0.00 0.00 0.00 0.00 0.00 0.00 0.00 0.00 0.00 0.00 0.00 0.00 0.00 0.00 0.00 0.00 0.00 0.00 0.00 0.00 0.00 0.00 0.00 0.00 0.00 0.00 0.00 0.00 0.00 0.00 0.00 0.00 0.00 0.00 0.00 0.00 0.00 0.00 0.00 0.00
0.00 0.00 0.00 0.00 0.00 0.00 0.00 0.00 0.00 0.00 0.00 0.00 0.00 0.00 0.00 0.00 0.00 0.00 0.00 0.00 0.00 0.00 0.00 0.00 0.00 0.00 0.00 0.00 0.00 0.00 0.00 0.00 0.00 0.00 0.00 0.00 0.00 0.00 0.00 0.00 0.00 0.00 0.00 0.00 0.00
0.00 0.00 0.00 0.00 0.00 0.00 0.00 0.00 0.00 0.00 0.00 0.00 0.00 0.00 0.00 0.00 0.00 0.00 0.00 0.00 0.00 0.00 0.00 0.00 0.00 0.00 0.00 0.00 0.00 0.00 0.00 0.00 0.00 0.00 0.00 0.00 0.00 0.00 0.00 0.00 0.00 0.00 0.00 0.00 0.00
0.00 0.00 0.00 0.00 0.00 0.00 0.00 0.00 0.00 0.00 0.00 0.00 0.00 0.00 0.00 0.00 0.00 0.00 0.00 0.00 0.00 0.00 0.00 0.00 0.00 0.00 0.00 0.00 0.00 0.00 0.00 0.00 0.00 0.00 0.00 0.00 0.00 0.00 0.00 0.00 0.00 0.00 0.00 0.00 0.00
0.00 0.00 0.00 0.00 0.00 0.00 0.00 0.00 0.00 0.00 0.00 0.00 0.00 0.00 0.00 0.00 0.00 0.00 0.00 0.00 0.00 0.00 0.00 0.00 0.00 0.00 0.00 0.00 0.00 0.00 0.00 0.00 0.00 0.00 0.00 0.00 0.00 0.00 0.00 0.00 0.00 0.00 0.00 0.00 0.00
0.00 0.00 0.00 0.00 0.00 0.00 0.00 0.00 0.00 0.00 0.00 0.00 0.00 0.00 0.00 0.00 0.00 0.00 0.00 0.00 0.00 0.00 0.00 0.00 0.00 0.00 0.00 0.00 0.00 0.00 0.00 0.00 0.00 0.00 0.00 0.00 0.00 0.00 0.00 0.00 0.00 0.00 0.00 0.00 0.00
0.00 0.00 0.00 0.00 0.00 0.00 0.00 0.00 0.00 0.00 0.00 0.00 0.00 0.00 0.00 0.00 0.00 0.00 0.00 0.00 0.00 0.00 0.00 0.00 0.00 0.00 0.00 0.00 0.00 0.00 0.00 0.00 0.00 0.00 0.00 0.00 0.00 0.00 0.00 0.00 0.00 0.00 0.00 0.00 0.00
0.00 0.00 0.00 0.00 0.00 0.00 0.00 0.00 0.00 0.00 0.00 0.00 0.00 0.00 0.00 0.00 0.00 0.00 0.00 0.00 0.00 0.00 0.00 0.00 0.00 0.00 0.00 0.00 0.00 0.00 0.00 0.00 0.00 0.00 0.00 0.00 0.00 0.00 0.00 0.00 0.00 0.00 0.00 0.00 0.00
0.00 0.00 0.00 0.00 0.00 0.00 0.00 0.00 0.00 0.00 0.00 0.00 0.00 0.00 0.00 0.00 0.00 0.00 0.00 0.00 0.00 0.00 0.00 0.00 0.00 0.00 0.00 0.00 0.00 0.00 0.00 0.00 0.00 0.00 0.00 0.00 0.00 0.00 0.00 0.00 0.00 0.00 0.00 0.00 0.00
0.00 0.00 0.00 0.00 0.00 0.00 0.00 0.00 0.00 0.00 0.00 0.00 0.00 0.00 0.00 0.00 0.00 0.00 0.00 0.00 0.00 0.00 0.00 0.00 0.00 0.00 0.00 0.00 0.00 0.00 0.00 0.00 0.00 0.00 0.00 0.00 0.00 0.00 0.00 0.00 0.00 0.00 0.00 0.00 0.00
0.00 0.00 0.00 0.00 0.00 0.00 0.00 0.00 0.00 0.00 0.00 0.00 0.00 0.00 0.00 0.00 0.00 0.00 0.00 0.00 0.00 0.00 0.00 0.00 0.00 0.00 0.00 0.00 0.00 0.00 0.00 0.00 0.00 0.00 0.00 0.00 0.00 0.00 0.00 0.00 0.00 0.00 0.00 0.00 0.00
0.00 0.00 0.00 0.00 0.00 0.00 0.00 0.00 0.00 0.00 0.00 0.00 0.00 0.00 0.00 0.00 0.00 0.00 0.00 0.00 0.00 0.00 0.00 0.00 0.00 0.00 0.00 0.00 0.00 0.00 0.00 0.00 0.00 0.00 0.00 0.00 0.00 0.00 0.00 0.00 0.00 0.00 0.00 0.00 0.00
0.00 0.00 0.00 0.00 0.00 0.00 0.00 0.00 0.00 0.00 0.00 0.00 0.00 0.00 0.00 0.00 0.00 0.00 0.00 0.00 0.00 0.00 0.00 0.00 0.00 0.00 0.00 0.00 0.00 0.00 0.00 0.00 0.00 0.00 0.00 0.00 0.00 0.00 0.00 0.00 0.00 0.00 0.00 0.00 0.00
0.00 0.00 0.00 0.00 0.00 0.00 0.00 0.00 0.00 0.00 0.00 0.00 0.00 0.00 0.00 0.00 0.00 0.00 0.00 0.00 0.00 0.00 0.00 0.00 0.00 0.00 0.00 0.00 0.00 0.00 0.00 0.00 0.00 0.00 0.00 0.00 0.00 0.00 0.00 0.00 0.00 0.00 0.00 0.00 0.00
0.00 0.00 0.00 0.00 0.00 0.00 0.00 0.00 0.00 0.00 0.00 0.00 0.00 0.00 0.00 0.00 0.00 0.00 0.00 0.00 0.00 0.00 0.00 0.00 0.00 0.00 0.00 0.00 0.00 0.00 0.00 0.00 0.00 0.00 0.00 0.00 0.00 0.00 0.00 0.00 0.00 0.00 0.00 0.00 0.00
0.00 0.00 0.00 0.00 0.00 0.00 0.00 0.00 0.00 0.00 0.00 0.00 0.00 0.00 0.00 0.00 0.00 0.00 0.00 0.00 0.00 0.00 0.00 0.00 0.00 0.00 0.00 0.00 0.00 0.00 0.00 0.00 0.00 0.00 0.00 0.00 0.00 0.00 0.00 0.00 0.00 0.00 0.00 0.00 0.00
0.00 0.00 0.00 0.00 0.00 0.00 0.00 0.00 0.00 0.00 0.00 0.00 0.00 0.00 0.00 0.00 0.00 0.00 0.00 0.00 0.00 0.00 0.00 0.00 0.00 0.00 0.00 0.00 0.00 0.00 0.00 0.00 0.00 0.00 0.00 0.00 0.00 0.00 0.00 0.00 0.00 0.00 0.00 0.00 0.00
0.00 0.00 0.00 0.00 0.00 0.00 0.00 0.00 0.00 0.00 0.00 0.00 0.00 0.00 0.00 0.00 0.00 0.00 0.00 0.00 0.00 0.00 0.00 0.00 0.00 0.00 0.00 0.00 0.00 0.00 0.00 0.00 0.00 0.00 0.00 0.00 0.00 0.00 0.00 0.00 0.00 0.00 0.00 0.00 0.00
0.00 0.00 0.00 0.00 0.00 0.00 0.00 0.00 0.00 0.00 0.00 0.00 0.00 0.00 0.00 0.00 0.00 0.00 0.00 0.00 0.00 0.00 0.00 0.00 0.00 0.00 0.00 0.00 0.00 0.00 0.00 0.00 0.00 0.00 0.00 0.00 0.00 0.00 0.00 0.00 0.00 0.00 0.00 0.00 0.00
0.00 0.00 0.00 0.00 0.00 0.00 0.00 0.00 0.00 0.00 0.00 0.00 0.00 0.00 0.00 0.00 0.00 0.00 0.00 0.00 0.00 0.00 0.00 0.00 0.00 0.00 0.00 0.00 0.00 0.00 0.00 0.00 0.00 0.00 0.00 0.00 0.00 0.00 0.00 0.00 0.00 0.00 0.00 0.00 0.00
MSLP
1018.48 1018.24 1018.03 1017.79 1017.47 1017.21 1016.94 1016.64 1016.32 1015.96 1015.65 1015.31 1014.93 1014.59 1014.14 1013.63 1012.68 1012.15 1010.10 1009.73 1009.33 1009.44 1009.70 1008.65 1008.17 1007.66 1007.39 1006.80 1007.00 1007.03 1005.87 1005.96 1006.39 1006.53 1006.81 1007.36 1007.34 1007.87 1007.90 1007.81 1008.11 1008.32 1008.48 1008.93 1010.84
1018.43 1018.21 1017.95 1017.75 1017.47 1017.18 1016.91 1016.60 1016.27 1015.91 1015.63 1015.22 1014.82 1014.41 1013.98 1013.56 1011.83 1010.15 1009.73 1009.62 1009.77 1009.65 1008.80 1007.92 1007.36 1007.10 1006.41 1006.58 1006.70 1006.27 1006.03 1006.47 1006.84 1006.65 1006.68 1007.09 1007.24 1007.45 1007.56 1007.47 1007.92 1008.58 1009.15 1009.72 1010.91
1018.33 1018.11 1017.88 1017.61 1017.35 1017.10 1016.81 1016.56 1016.28 1015.98 1015.61 1015.25 1014.79 1014.34 1013.89 1013.34 1010.92 1008.85 1009.76 1009.73 1009.83 1009.63 1008.57 1008.00 1007.52 1006.85 1006.19 1006.37 1006.63 1006.57 1006.29 1006.59 1006.61 1006.82 1006.79 1006.77 1007.01 1007.29 1007.23 1007.04 1007.15 1007.80 1009.01 1009.89 1010.63
1018.25 1017.97 1017.75 1017.49 1017.21 1016.96 1016.74 1016.47 1016.18 1015.92 1015.60 1015.25 1014.74 1014.26 1013.77 1012.44 1009.72 1009.18 1009.69 1009.65 1009.86 1009.21 1008.46 1007.76 1007.14 1006.40 1006.14 1006.13 1006.73 1006.59 1006.56 1006.41 1006.33 1006.68 1006.73 1006.70 1006.82 1006.85 1006.96 1006.81 1007.26 1007.54 1008.84 1009.70 1010.24
1018.09 1017.83 1017.57 1017.36 1017.10 1016.80 1016.54 1016.32 1016.11 1015.82 1015.51 1015.18 1014.67 1014.13 1013.15 1010.99 1008.90 1009.16 1009.63 1009.61 1009.54 1009.09 1008.12 1007.51 1006.87 1006.64 1006.16 1006.34 1006.49 1006.45 1006.20 1005.94 1005.80 1006.12 1006.40 1006.68 1006.61 1006.64 1006.68 1006.84 1007.43 1007.57 1008.61 1009.32 1009.90
1017.88 1017.61 1017.37 1017.13 1016.88 1016.62 1016.39 1016.19 1015.98 1015.69 1015.34 1015.06 1014.59 1014.14 1012.42 1009.95 1009.12 1009.21 1009.15 1009.22 1008.72 1008.50 1007.98 1007.61 1007.09 1007.11 1006.53 1006.50 1006.58 1006.67 1006.17 1005.63 1005.72 1005.70 1006.03 1006.25 1006.12 1006.70 1006.21 1006.71 1007.32 1007.71 1008.35 1008.94 1009.48
1017.73 1017.44 1017.16 1016.90 1016.67 1016.42 1016.22 1016.02 1015.78 1015.49 1015.15 1014.89 1014.51 1013.57 1011.36 1009.10 1009.09 1009.21 1009.18 1008.72 1008.56 1008.08 1007.67 1007.76 1007.58 1007.18 1006.85 1006.26 1006.91 1006.49 1005.85 1005.30 1005.50 1005.67 1005.59 1006.08 1005.70 1005.67 1005.75 1006.60 1007.09 1007.61 1008.23 1008.71 1009.29
1017.50 1017.21 1016.91 1016.66 1016.42 1016.21 1016.02 1015.80 1015.44 1015.07 1014.78 1014.60 1014.39 1013.01 1009.68 1009.12 1009.27 1009.17 1008.84 1008.79 1008.80 1008.53 1008.00 1008.08 1007.97 1007.26 1006.97 1006.81 1006.19 1006.08 1005.71 1004.88 1005.05 1005.62 1005.69 1006.04 1004.43 1004.48 1005.52 1006.25 1006.58 1007.22 1007.88 1008.49 1008.93
1017.26 1016.94 1016.69 1016.46 1016.21 1015.94 1015.75 1015.46 1014.95 1014.52 1014.48 1014.32 1013.60 1011.93 1008.62 1009.41 1008.71 1008.29 1008.37 1007.94 1008.32 1008.42 1008.41 1008.46 1007.86 1007.13 1006.85 1006.28 1005.70 1005.72 1005.05 1005.09 1005.00 1005.51 1005.55 1005.61 1004.35 1004.61 1005.49 1005.73 1006.06 1006.68 1007.24 1007.93 1008.46
1016.94 1016.66 1016.43 1016.19 1016.00 1015.81 1015.47 1015.06 1014.69 1014.46 1014.10 1013.49 1012.64 1011.32 1008.55 1007.74 1008.07 1008.30 1008.37 1007.96 1007.72 1007.97 1008.07 1007.82 1007.29 1006.74 1006.21 1005.83 1005.15 1005.41 1005.25 1005.12 1004.78 1004.97 1005.18 1004.80 1004.09 1003.94 1004.74 1005.45 1005.49 1005.82 1006.41 1007.05 1007.55
1016.52 1016.25 1016.10 1015.98 1015.84 1015.70 1014.70 1014.25 1013.91 1012.83 1012.07 1010.03 1009.23 1008.69 1007.84 1007.94 1008.20 1007.84 1007.98 1007.69 1007.52 1007.45 1006.95 1007.30 1006.75 1005.82 1005.40 1006.10 1006.53 1006.31 1005.68 1005.08 1004.59 1004.83 1004.89 1003.99 1003.60 1003.32 1003.56 1004.74 1004.92 1005.06 1005.75 1006.24 1006.57
1016.17 1015.85 1015.69 1015.63 1015.63 1015.66 1015.10 1012.22 1010.61 1010.64 1009.47 1009.34 1009.14 1008.67 1008.19 1008.02 1007.25 1007.53 1007.91 1007.43 1007.22 1006.64 1006.98 1007.04 1006.07 1005.48 1006.18 1006.51 1006.35 1005.88 1005.27 1004.34 1004.32 1004.88 1004.75 1003.87 1003.23 1003.02 1003.26 1003.55 1004.56 1004.84 1005.10 1005.52 1005.86
1015.84 1015.55 1015.42 1015.41 1015.48 1015.35 1013.03 1011.11 1010.69 1010.31 1008.60 1008.54 1008.16 1007.63 1007.28 1007.58 1006.50 1006.63 1007.27 1006.86 1006.71 1006.51 1006.43 1005.84 1005.41 1006.02 1006.10 1005.90 1005.70 1004.96 1004.51 1004.24 1004.35 1004.30 1004.07 1003.91 1002.19 1002.81 1003.58 1004.06 1004.32 1004.58 1004.70 1004.97 1005.42
1015.48 1015.24 1015.18 1015.25 1015.66 1012.92 1011.67 1010.85 1010.80 1010.49 1007.64 1007.66 1007.18 1006.95 1007.27 1006.83 1006.36 1006.57 1006.74 1006.57 1006.46 1006.03 1006.13 1005.75 1005.58 1006.07 1005.75 1005.35 1005.18 1004.18 1004.44 1004.56 1004.18 1003.78 1003.19 1003.92 1002.33 1002.36 1002.92 1003.17 1004.01 1004.07 1004.29 1004.36 1004.83
1015.06 1014.92 1014.89 1015.14 1013.12 1011.79 1010.93 1010.80 1010.73 1010.21 1006.37 1006.77 1006.52 1006.92 1006.51 1006.06 1005.91 1006.56 1006.73 1006.53 1005.84 1006.00 1006.38 1005.08 1005.43 1005.52 1005.14 1004.75 1004.86 1004.34 1004.60 1004.35 1003.98 1003.25 1002.98 1002.79 1002.41 1001.92 1002.51 1002.50 1002.93 1003.16 1003.46 1003.91 1004.06
1014.55 1014.55 1014.67 1014.51 1013.21 1011.26 1011.09 1010.82 1010.21 1008.15 1005.69 1005.66 1005.82 1005.96 1005.82 1005.43 1005.46 1006.23 1006.57 1006.57 1006.21 1005.93 1005.78 1005.37 1005.34 1005.40 1004.73 1004.50 1004.68 1004.44 1004.22 1003.38 1003.09 1002.72 1001.83 1002.72 1002.79 1001.54 1002.00 1002.93 1002.88 1002.88 1002.96 1003.10 1003.51
1013.77 1013.81 1014.23 1012.65 1010.88 1011.14 1010.93 1009.91 1007.60 1004.82 1005.32 1005.05 1004.66 1004.97 1004.65 1004.78 1005.04 1005.43 1005.68 1005.73 1005.20 1004.65 1004.31 1004.35 1004.17 1004.52 1004.73 1004.18 1003.64 1004.10 1003.04 1001.67 1001.26 1001.20 1001.02 1002.40 1002.79 1002.36 1002.40 1003.14 1003.28 1003.15 1002.99 1002.97 1003.25
1013.39 1013.56 1013.17 1011.96 1011.43 1011.11 1010.24 1008.01 1005.32 1004.86 1003.90 1004.31 1004.01 1004.25 1004.17 1004.34 1004.38 1004.72 1004.84 1004.62 1004.81 1004.77 1004.02 1003.09 1003.21 1003.70 1003.88 1003.47 1002.94 1002.69 1002.58 1001.70 1001.15 1000.55 1000.63 1001.76 1001.60 1001.86 1002.57 1003.01 1003.13 1003.05 1003.20 1003.49 1003.87
1014.00 1012.49 1011.44 1010.87 1011.28 1011.13 1008.84 1005.70 1004.68 1004.35 1004.32 1003.72 1003.88 1003.66 1003.77 1004.18 1004.11 1004.40 1004.36 1003.91 1004.23 1004.41 1003.96 1003.16 1002.83 1003.39 1003.53 1003.32 1003.27 1002.83 1002.44 1002.14 1001.26 1001.49 1001.30 1000.81 1001.25 1002.08 1001.92 1002.52 1002.67 1002.69 1002.70 1003.17 1004.03
1012.37 1010.61 1010.04 1010.63 1010.81 1010.04 1007.29 1005.81 1005.11 1005.06 1004.62 1003.95 1002.91 1003.25 1003.11 1003.62 1004.05 1003.97 1004.08 1004.90 1004.72 1004.99 1004.53 1003.62 1003.11 1002.61 1003.07 1003.37 1003.43 1003.08 1002.79 1001.86 1001.27 1001.00 1000.75 1000.43 1000.97 1000.76 1001.96 1002.28 1002.66 1002.78 1002.86 1003.13 1003.58
1011.90 1009.18 1009.90 1010.19 1010.19 1008.15 1005.72 1005.68 1005.57 1005.17 1004.93 1003.98 1003.41 1003.26 1003.22 1003.60 1003.67 1003.75 1004.11 1005.27 1005.40 1005.09 1005.13 1004.28 1003.80 1002.73 1002.84 1002.03 1001.63 1002.44 1002.08 1002.09 1001.49 1001.53 1000.73 1000.38 1000.29 1001.32 1002.18 1002.87 1003.16 1003.14 1003.29 1003.46 1003.71
1010.58 1008.25 1009.51 1009.55 1008.09 1007.12 1005.82 1006.32 1006.78 1005.34 1004.95 1004.31 1004.00 1003.70 1003.74 1004.20 1004.05 1004.19 1004.45 1005.13 1006.10 1005.75 1004.92 1004.98 1003.76 1002.60 1001.82 1001.84 1002.43 1002.16 1001.62 1001.40 1000.98 1001.07 1001.34 1001.56 1001.02 1001.60 1002.57 1003.35 1003.86 1003.83 1003.89 1003.95 1004.07
1009.71 1008.70 1009.01 1008.67 1006.70 1006.23 1006.49 1006.17 1006.19 1005.39 1005.38 1004.85 1004.67 1004.74 1004.81 1004.68 1004.77 1004.98 1005.41 1006.34 1006.44 1005.97 1005.83 1005.47 1004.30 1003.00 1001.75 1001.62 1002.15 1001.86 1001.66 1001.46 1001.04 1000.87 1000.93 1001.20 1001.14 1001.93 1002.85 1003.78 1004.52 1004.68 1004.61 1004.37 1004.53
1010.02 1008.32 1008.19 1008.00 1007.93 1006.83 1006.39 1006.33 1006.03 1006.39 1006.09 1005.93 1005.70 1005.45 1005.31 1005.29 1005.56 1005.41 1005.58 1006.39 1006.80 1006.66 1007.07 1006.67 1004.70 1003.81 1002.82 1001.92 1002.57 1002.05 1001.85 1001.94 1001.46 1000.77 1000.32 1000.60 1001.05 1001.76 1003.69 1004.72 1005.24 1005.47 1005.33 1004.93 1004.74
1010.76 1009.90 1009.99 1007.88 1007.91 1007.63 1007.46 1007.24 1006.67 1006.46 1006.66 1006.59 1006.42 1006.32 1006.18 1005.92 1005.92 1005.81 1006.18 1006.17 1006.49 1007.11 1007.00 1006.26 1005.11 1004.44 1003.82 1003.41 1003.35 1003.03 1002.51 1002.05 1001.94 1001.75 1001.36 1001.21 1001.77 1002.56 1004.61 1005.56 1006.09 1006.21 1005.99 1005.71 1005.53
1011.56 1011.17 1010.60 1009.65 1009.27 1008.52 1008.55 1007.96 1007.63 1007.55 1007.60 1007.07 1006.93 1007.25 1007.22 1006.92 1006.99 1006.75 1006.82 1006.71 1006.65 1006.87 1006.74 1006.50 1005.80 1005.28 1004.41 1003.92 1003.46 1003.15 1002.73 1002.26 1001.89 1001.94 1001.73 1002.22 1002.49 1004.08 1005.55 1006.33 1006.64 1006.81 1006.67 1006.48 1006.38
1013.62 1013.12 1012.03 1010.69 1009.54 1008.92 1008.84 1008.96 1008.81 1008.77 1008.61 1008.44 1008.26 1007.91 1007.70 1007.88 1008.23 1007.84 1007.52 1007.36 1007.24 1007.41 1007.25 1007.07 1006.27 1005.61 1004.35 1003.94 1003.52 1003.12 1002.51 1002.22 1001.96 1002.00 1002.41 1002.57 1003.47 1004.60 1005.83 1006.83 1007.38 1007.38 1007.33 1007.21 1007.08
Thickness
5734 5736 5738 5741 5744 5747 5750 5753 5756 5760 5763 5767 5771 5775 5781 5787 5797 5805 5812 5823 5829 5830 5830 5836 5836 5836 5838 5830 5832 5830 5806 5791 5794 5795 5799 5813 5806 5815 5821 5811 5813 5816 5813 5815 5806
5732 5736 5739 5741 5744 5747 5750 5753 5757 5761 5764 5769 5773 5778 5783 5788 5803 5811 5823 5826 5827 5829 5832 5830 5825 5833 5827 5824 5824 5817 5800 5794 5808 5813 5807 5812 5811 5811 5808 5808 5805 5805 5811 5812 5804
5732 5735 5739 5742 5745 5748 5751 5754 5757 5761 5765 5770 5775 5780 5786 5791 5804 5818 5825 5827 5827 5830 5837 5837 5835 5832 5821 5825 5818 5813 5796 5809 5812 5816 5818 5813 5811 5818 5807 5800 5812 5805 5803 5805 5801
5734 5736 5740 5743 5746 5749 5752 5756 5759 5763 5767 5772 5777 5782 5788 5800 5786 5825 5826 5828 5828 5833 5834 5831 5829 5821 5814 5808 5817 5800 5811 5814 5817 5819 5815 5809 5818 5810 5811 5812 5822 5821 5811 5804 5799
5737 5739 5742 5745 5748 5752 5756 5759 5762 5766 5770 5774 5779 5785 5797 5801 5812 5829 5827 5829 5830 5832 5828 5825 5821 5819 5808 5814 5814 5804 5812 5821 5826 5822 5819 5818 5810 5809 5810 5821 5822 5822 5811 5804 5801
5741 5743 5746 5749 5752 5755 5759 5762 5765 5769 5773 5777 5781 5786 5799 5793 5828 5829 5831 5831 5833 5830 5828 5829 5823 5826 5817 5812 5806 5811 5814 5820 5822 5821 5819 5809 5812 5808 5817 5823 5815 5813 5808 5807 5803
5742 5746 5749 5752 5755 5759 5762 5765 5768 5772 5776 5779 5783 5790 5799 5810 5829 5829 5831 5832 5836 5835 5824 5831 5832 5821 5821 5812 5817 5814 5804 5818 5816 5816 5813 5816 5801 5802 5822 5817 5808 5807 5805 5804 5802
5743 5747 5751 5754 5758 5761 5764 5767 5771 5775 5779 5781 5784 5794 5802 5827 5827 5827 5832 5828 5833 5835 5833 5833 5832 5824 5817 5822 5818 5803 5808 5792 5815 5812 5815 5807 5794 5820 5824 5812 5806 5804 5803 5801 5800
5743 5748 5751 5755 5759 5762 5765 5769 5774 5778 5780 5782 5790 5796 5806 5826 5820 5833 5834 5825 5827 5829 5828 5829 5826 5815 5816 5801 5796 5801 5784 5787 5797 5814 5808 5803 5799 5819 5820 5813 5806 5805 5804 5800 5799
5743 5747 5751 5755 5758 5762 5766 5770 5773 5776 5781 5785 5791 5787 5815 5814 5824 5826 5832 5831 5821 5818 5811 5812 5810 5801 5806 5799 5775 5780 5783 5790 5789 5807 5807 5802 5805 5821 5820 5811 5809 5811 5808 5803 5801
5743 5748 5751 5753 5756 5759 5767 5776 5779 5780 5786 5801 5805 5803 5813 5823 5827 5821 5827 5822 5820 5811 5793 5803 5790 5786 5802 5799 5792 5789 5787 5785 5802 5811 5800 5807 5809 5818 5827 5814 5811 5814 5809 5805 5805
5742 5747 5751 5753 5754 5756 5762 5781 5794 5794 5791 5801 5800 5801 5812 5817 5805 5812 5824 5803 5800 5790 5798 5789 5783 5809 5805 5798 5791 5792 5786 5795 5806 5805 5801 5806 5806 5821 5823 5822 5814 5813 5812 5809 5809
5742 5746 5749 5750 5751 5754 5772 5784 5793 5796 5791 5792 5802 5803 5809 5812 5807 5807 5815 5809 5796 5789 5791 5788 5801 5806 5798 5794 5788 5796 5792 5794 5789 5802 5811 5802 5812 5811 5815 5813 5815 5817 5819 5817 5808
5741 5745 5746 5747 5748 5769 5773 5785 5787 5790 5785 5780 5793 5803 5806 5812 5799 5822 5823 5810 5798 5790 5793 5794 5809 5793 5793 5790 5797 5788 5808 5798 5795 5793 5780 5802 5779 5807 5814 5813 5808 5814 5816 5817 5813
5740 5743 5744 5745 5765 5770 5780 5783 5785 5782 5761 5787 5791 5816 5812 5803 5808 5801 5822 5808 5793 5791 5790 5793 5792 5789 5787 5795 5804 5793 5806 5799 5798 5798 5797 5799 5790 5805 5818 5810 5813 5818 5821 5819 5821
5741 5742 5743 5746 5757 5774 5777 5781 5782 5767 5746 5778 5794 5791 5792 5803 5804 5804 5800 5812 5810 5793 5796 5795 5812 5801 5802 5810 5806 5812 5801 5807 5809 5805 5785 5791 5784 5790 5807 5803 5812 5821 5824 5825 5823
5745 5747 5745 5757 5772 5772 5776 5777 5768 5772 5792 5775 5785 5795 5797 5790 5792 5794 5787 5784 5783 5776 5780 5796 5800 5808 5808 5796 5815 5802 5800 5787 5784 5787 5785 5802 5778 5789 5815 5814 5810 5812 5820 5825 5825
5746 5746 5751 5760 5766 5771 5775 5774 5761 5779 5788 5799 5798 5797 5784 5794 5795 5794 5789 5784 5799 5793 5786 5786 5772 5800 5812 5806 5802 5808 5805 5788 5757 5779 5794 5809 5785 5800 5821 5822 5821 5823 5821 5819 5816
5739 5753 5760 5768 5766 5769 5773 5772 5774 5783 5791 5792 5794 5784 5783 5791 5795 5791 5791 5795 5800 5803 5781 5785 5787 5813 5812 5817 5814 5801 5792 5817 5801 5802 5788 5806 5813 5816 5828 5820 5822 5822 5825 5820 5813
5755 5764 5767 5767 5769 5772 5776 5759 5779 5790 5793 5798 5787 5794 5781 5787 5783 5789 5789 5793 5793 5801 5811 5801 5778 5814 5811 5815 5811 5805 5816 5793 5803 5766 5764 5797 5793 5801 5804 5809 5815 5816 5819 5821 5820
5755 5765 5766 5769 5771 5775 5773 5773 5780 5795 5795 5792 5791 5789 5794 5787 5793 5790 5789 5789 5795 5798 5802 5803 5792 5798 5808 5806 5809 5801 5799 5800 5808 5798 5780 5778 5795 5822 5809 5808 5806 5814 5818 5819 5819
5763 5758 5769 5773 5765 5772 5774 5773 5767 5788 5798 5797 5800 5797 5791 5789 5786 5786 5783 5788 5793 5796 5788 5797 5798 5784 5801 5819 5817 5812 5806 5810 5790 5783 5793 5785 5791 5828 5816 5811 5808 5810 5813 5817 5818
5760 5761 5772 5773 5760 5766 5771 5775 5779 5785 5783 5789 5786 5792 5793 5784 5772 5781 5781 5788 5791 5791 5783 5791 5786 5770 5790 5807 5810 5799 5808 5813 5817 5816 5790 5775 5786 5820 5814 5806 5803 5801 5806 5813 5812
5757 5751 5761 5767 5764 5765 5764 5764 5768 5779 5778 5782 5780 5788 5783 5777 5782 5774 5777 5781 5784 5785 5766 5777 5786 5775 5767 5788 5791 5784 5796 5800 5803 5793 5798 5798 5800 5810 5790 5787 5791 5794 5799 5806 5808
5747 5739 5740 5752 5753 5757 5760 5760 5760 5761 5773 5777 5769 5771 5769 5762 5767 5767 5773 5777 5782 5767 5775 5780 5763 5777 5781 5786 5783 5779 5782 5790 5781 5790 5781 5796 5790 5799 5781 5779 5781 5786 5791 5794 5796
5735 5734 5740 5741 5742 5747 5740 5750 5752 5756 5757 5759 5759 5762 5764 5757 5759 5753 5761 5763 5761 5772 5769 5775 5754 5762 5761 5776 5777 5768 5779 5785 5788 5787 5790 5788 5785 5785 5778 5777 5774 5775 5779 5780 5783
5718 5723 5726 5716 5738 5742 5742 5740 5742 5748 5753 5756 5754 5755 5755 5758 5759 5765 5769 5767 5767 5756 5752 5752 5753 5749 5746 5770 5767 5752 5774 5780 5785 5791 5783 5771 5779 5777 5766 5761 5761 5765 5769 5769 5773